Station: Tasman Island  

  Atmospheric Gas Attenuation - ITU Rec 676-11   ----------------- dB/100km -----------------
Date Time Temp RH % AH g/m3 Dew Point Wind Direction Speed kph Gust kph Barometer mB Rainfall Since 9am 24GHz 47GHz 76GHz 122GHz 134GHz 241GHz
08/05 23:20 10.4 82 7.9 7.4 7 15 1017.2 0.4 18.2 25.9 38.8 101.7 93.6 321.1
08/05 23:10 10.4 80 7.71 7.2 19 33 1017.3 0.4 17.8 25.6 38.0 99.7 91.0 312.2
08/05 23:00 10.4 83 8 7.6 11 43 1017.5 0.4 18.5 26.1 39.2 102.9 95.0 325.9
08/05 22:50 10.3 84 8.05 7.7 7 15 1017.7 0.4 18.6 26.2 39.5 103.6 95.8 328.8
08/05 22:40 10.3 80 7.66 7.1 11 24 1017.9 0.4 17.7 25.5 37.9 99.3 90.5 310.4
08/05 22:30 10.3 82 7.85 7.4 11 43 1017.9 0.4 18.1 25.9 38.7 101.4 93.1 319.3
08/05 22:20 10.3 82 7.85 7.3 9 20 1017.9 0.4 18.1 25.9 38.7 101.4 93.1 319.3
08/05 22:10 10.4 82 7.9 7.4 9 24 1017.9 0.4 18.2 25.9 38.8 101.8 93.6 321.3
08/05 22:00 10.4 82 7.9 7.5 17 41 1017.9 0.4 18.2 25.9 38.8 101.8 93.6 321.3
08/05 21:50 11 82 8.21 8 13 32 1017.5 0.4 18.9 26.2 39.8 104.4 97.1 333.4
08/05 21:40 10.9 80 7.96 7.6 24 43 1017.4 0.4 18.4 25.8 38.8 101.8 93.8 321.9
08/05 21:30 10.9 82 8.16 8 30 72 1017.3 0.4 18.8 26.2 39.6 103.9 96.5 331.4
08/05 21:20 10.8 80 7.91 7.6 26 44 1017.4 0.4 18.2 25.8 38.7 101.3 93.2 320.0
08/05 21:10 10.9 80 7.96 7.6 39 63 1017.4 0.4 18.4 25.8 38.8 101.8 93.8 321.9
08/05 21:00 10.9 81 8.06 7.8 33 74 1017.2 0.4 18.6 26.0 39.2 102.8 95.1 326.6
08/05 20:50 10.9 80 7.96 7.7 32 63 1016.9 0.4 18.4 25.8 38.8 101.7 93.8 321.8
08/05 20:40 10.9 80 7.96 7.7 32 57 1016.9 0.4 18.4 25.8 38.8 101.7 93.8 321.8
08/05 20:30 10.8 83 8.21 8 30 61 1016.9 0.4 18.9 26.3 39.9 104.6 97.3 334.1
08/05 20:20 10.7 86 8.45 8.4 35 59 1016.9 0.4 19.4 26.7 40.9 107.4 100.7 346.0
08/05 20:10 10.8 83 8.21 8 22 39 1016.7 0.4 18.9 26.3 39.9 104.6 97.2 334.0
08/05 20:00 10.7 79 7.76 7.2 28 65 1016.7 0.4 17.9 25.6 38.1 99.8 91.3 313.2
08/05 19:50 10.8 79 7.81 7.3 22 50 1016.8 0.4 18.0 25.6 38.2 100.2 91.9 315.1
08/05 19:40 10.7 75 7.37 6.4 33 54 1016.7 0.4 17.1 24.9 36.5 95.6 86.1 295.0
08/05 19:30 10.7 78 7.66 7 32 65 1016.6 0.4 17.7 25.4 37.7 98.7 90.0 308.5
08/05 19:20 10.7 80 7.86 7.4 30 61 1016.6 0.4 18.1 25.7 38.5 100.9 92.6 317.8
08/05 19:10 10.5 79 7.66 7 39 63 1016.3 0.4 17.7 25.4 37.7 98.9 90.2 309.2
08/05 19:00 10.4 77 7.42 6.5 28 56 1016.1 0.4 17.2 25.1 36.8 96.4 87.1 298.3
08/05 18:50 10.4 77 7.42 6.5 28 44 1016.2 0.4 17.2 25.1 36.8 96.4 87.1 298.3
08/05 18:40 10.6 77 7.52 6.7 33 52 1016.1 0.4 17.4 25.2 37.1 97.2 88.2 302.2
08/05 18:30 10.5 72 6.98 5.7 28 69 1016.1 0.4 16.3 24.3 35.0 91.6 81.2 277.7
08/05 18:20 10.3 73 6.99 5.8 33 63 1016.1 0.4 16.3 24.4 35.1 91.9 81.5 278.8
08/05 18:10 10.3 72 6.9 5.6 22 56 1016.1 0.4 16.1 24.3 34.8 91.0 80.3 274.7
08/05 18:00 10.3 77 7.38 6.5 35 72 1016.1 0.4 17.1 25.0 36.7 96.1 86.6 296.8
08/05 17:50 10.2 71 6.76 5.3 43 59 1016 0.4 15.8 24.1 34.3 89.6 78.6 268.7
08/05 17:40 10.1 71 6.72 5.2 35 57 1015.9 0.4 15.7 24.0 34.2 89.3 78.2 267.2
08/05 17:30 10.2 78 7.42 6.5 30 57 1015.8 0.4 17.2 25.1 36.9 96.6 87.3 299.0
08/05 17:20 9.9 79 7.38 6.4 30 54 1015.7 0.4 17.2 25.1 36.9 96.6 87.1 298.2
08/05 17:10 9.6 87 7.97 7.5 32 46 1015.8 0.4 18.4 26.2 39.4 103.4 95.4 327.4
08/05 17:00 9.3 92 8.27 8.1 26 65 1015.8 0.4 19.1 26.8 40.9 107.2 99.9 343.2
08/05 16:50 9.3 91 8.18 7.9 15 41 1015.6 0.4 18.9 26.6 40.5 106.1 98.7 338.8
08/05 16:40 9.7 90 8.3 8.1 56 76 1015.3 0.4 19.1 26.7 40.7 106.9 99.8 342.7
08/05 16:30 9.5 90 8.19 7.9 28 61 1015.3 0.4 18.9 26.6 40.4 106.0 98.5 338.3
08/05 16:20 9 91 8.03 7.6 20 39 1015.4 0.4 18.6 26.5 40.0 104.8 96.9 332.7
08/05 16:10 8.9 91 7.97 7.6 32 57 1015.3 0.4 18.5 26.4 39.8 104.3 96.2 330.2
08/05 16:00 9.3 92 8.27 8.1 39 83 1015 0.4 19.1 26.8 40.8 107.1 99.9 343.0
08/05 15:50 8.8 90 7.84 7.2 28 46 1015.1 0.4 18.2 26.2 39.3 103.0 94.5 324.3
08/05 15:40 9.3 90 8.09 7.7 44 59 1014.9 0.2 18.7 26.4 40.1 105.1 97.4 334.2
08/05 15:30 9.6 89 8.16 7.9 46 70 1014.8 0.2 18.8 26.5 40.2 105.4 97.9 336.3
08/05 15:20 9.7 85 7.84 7.3 54 65 1014.8 0.2 18.2 25.9 38.8 101.7 93.4 320.5
08/05 15:10 8.9 90 7.89 7.3 57 70 1014.4 0.2 18.3 26.2 39.4 103.3 95.1 326.1
08/05 15:00 9.4 90 8.14 7.8 24 54 1014.6 0.2 18.8 26.5 40.2 105.5 97.9 336.1
08/05 14:50 9.1 90 7.99 7.5 28 43 1014.6 0.2 18.5 26.3 39.7 104.2 96.2 330.1
08/05 14:40 9.6 85 7.79 7.3 30 56 1014.7 0.2 18.0 25.8 38.6 101.3 92.9 318.5
08/05 14:30 9.5 86 7.83 7.3 46 67 1014.4 0.2 18.1 25.9 38.8 101.8 93.5 320.7
08/05 14:20 9.2 85 7.59 6.9 54 69 1014.3 0.2 17.6 25.6 38.0 99.6 90.6 310.5
08/05 14:10 9.4 83 7.51 6.6 33 44 1014.2 0.2 17.5 25.4 37.6 98.4 89.3 305.9
08/05 14:00 10.1 80 7.57 6.8 41 72 1013.9 0.2 17.6 25.3 37.5 98.2 89.2 305.9
08/05 13:50 9.6 85 7.79 7.3 39 56 1013.7 0.2 18.0 25.8 38.6 101.2 92.8 318.2
08/05 13:40 9.6 81 7.42 6.5 50 74 1013.6 0.2 17.3 25.2 37.1 97.1 87.8 300.7
08/05 13:30 9.6 81 7.42 6.5 41 74 1013.6 0.2 17.3 25.2 37.1 97.1 87.8 300.7
08/05 13:20 9.1 87 7.72 7 35 56 1013.6 0.2 17.9 25.8 38.5 101.1 92.4 316.9
08/05 13:10 9.1 87 7.72 7 48 70 1013.5 0.2 17.9 25.8 38.5 101.1 92.4 316.9
08/05 13:00 8.9 85 7.45 6.5 41 80 1013.5 0.2 17.3 25.4 37.5 98.3 89.0 304.8
08/05 12:50 9.3 81 7.28 6.2 56 70 1013.5 0.2 17.0 25.0 36.6 96.0 86.2 295.3
08/05 12:40 9.7 79 7.29 6.2 41 67 1013.4 0.2 17.0 24.9 36.5 95.6 85.9 294.2
08/05 12:30 9.6 80 7.33 6.3 46 72 1013.4 0.2 17.1 25.0 36.7 96.2 86.6 296.5
08/05 12:20 9.2 80 7.15 5.9 54 74 1013.3 0.2 16.7 24.9 36.2 94.7 84.6 289.5
08/05 12:10 9.5 80 7.28 6.2 61 83 1013.2 0.2 17.0 25.0 36.5 95.7 86.0 294.5
08/05 12:00 9.2 82 7.32 6.3 48 76 1013.3 0.2 17.1 25.1 36.8 96.5 86.9 297.5
08/05 11:50 9.8 75 6.96 5.7 46 74 1013.1 0.2 16.3 24.4 35.1 91.9 81.4 278.5
08/05 11:40 9.7 75 6.92 5.5 59 74 1012.9 0.2 16.2 24.3 35.0 91.6 81.0 277.0
08/05 11:30 10.2 72 6.85 5.4 48 83 1013 0.2 16.0 24.1 34.5 90.3 79.6 272.1
08/05 11:20 9.9 73 6.82 5.3 52 70 1012.9 0.2 16.0 24.1 34.5 90.3 79.5 271.7
08/05 11:10 10 74 6.96 5.7 35 57 1012.7 0.2 16.2 24.3 35.0 91.6 81.2 277.7
08/05 11:00 10.2 74 7.04 5.8 56 82 1012.6 0.2 16.4 24.4 35.2 92.2 82.0 280.7
08/05 10:50 8.9 77 6.75 5.2 61 76 1012.5 0.2 15.8 24.3 34.7 90.7 79.6 271.9
08/05 10:40 9.6 78 7.15 5.9 56 74 1012.4 0.2 16.7 24.7 35.9 94.1 84.1 287.9
08/05 10:30 9.3 78 7.01 5.7 61 91 1012.1 0.2 16.4 24.6 35.5 92.9 82.5 282.4
08/05 10:20 8.9 85 7.45 6.6 54 80 1012.1 0.2 17.3 25.4 37.5 98.2 88.9 304.5
08/05 10:10 9 82 7.23 6.1 56 78 1012.1 0.2 16.9 25.0 36.5 95.7 85.8 293.7
08/05 10:00 9.5 78 7.1 5.9 50 82 1011.9 0.2 16.6 24.6 35.8 93.6 83.5 285.8
08/05 09:50 9.1 77 6.83 5.4 54 72 1011.7 0.2 16.0 24.3 34.8 91.2 80.4 274.7
08/05 09:40 8.7 87 7.53 6.6 56 76 1011.4 0.2 17.5 25.5 37.9 99.3 90.1 308.9
08/05 09:30 8.9 86 7.54 6.7 56 87 1011.4 0.2 17.5 25.5 37.8 99.1 90.0 308.6
08/05 09:20 8.8 87 7.58 6.7 61 80 1011.2 0.2 17.6 25.6 38.0 99.7 90.7 310.8
08/05 09:10 8.2 89 7.46 6.5 48 72 1011 0.2 17.4 25.6 37.8 99.1 89.7 307.4
08/05 09:00 9.7 74 6.82 5.3 59 96 1011.1 0 16.0 24.1 34.5 90.4 79.6 272.0
08/05 08:50 9.3 78 7.01 5.6 61 82 1011 7.6 16.4 24.5 35.5 92.8 82.5 282.1
08/05 08:40 8.9 81 7.1 5.8 65 93 1010.5 7.6 16.6 24.7 36.0 94.2 84.1 287.6
08/05 08:30 9.3 76 6.83 5.3 35 78 1010.2 7.6 16.0 24.2 34.7 90.8 80.0 273.6
08/05 08:20 9.4 79 7.15 5.9 39 61 1010.3 7.6 16.7 24.7 35.9 94.1 84.2 288.1
08/05 08:10 9.2 77 6.88 5.5 54 70 1010 7.6 16.1 24.3 34.9 91.5 80.8 276.2
08/05 08:00 9.1 81 7.19 6 44 91 1009.5 7.6 16.8 24.8 36.2 94.9 85.0 290.9
08/05 07:50 8.6 82 7.05 5.7 56 87 1009.7 7.6 16.5 24.7 35.9 94.0 83.7 286.2
08/05 07:40 8.6 82 7.05 5.8 37 57 1009.4 7.4 16.5 24.7 35.9 93.9 83.6 286.1
08/05 07:30 7.8 85 6.94 5.4 63 93 1009.2 7.4 16.3 24.7 35.8 93.7 83.0 283.8
08/05 07:20 9.1 73 6.48 4.5 52 80 1008.9 7.4 15.3 23.6 33.3 87.2 75.6 258.0
08/05 07:10 9 77 6.79 5.2 37 65 1008.7 7.4 15.9 24.2 34.6 90.6 79.7 272.5
08/05 07:00 8.7 78 6.75 5.1 63 95 1008.4 7.4 15.9 24.2 34.6 90.5 79.5 271.6
08/05 06:50 8.6 84 7.22 6 65 83 1008.3 7.4 16.9 24.9 36.5 95.7 85.8 293.8

Last Refresh: 08-May-2026 22:59:20

Bureau of Meteorology